GFSSW_sfc_wetblb_000.txt.gz
Wetbulb
62.12 62.07 62.27 62.48 62.20 62.07 62.02 62.05 62.45 62.21 62.15 62.02 62.01 61.89 61.15 60.64 59.23 54.14 48.17 53.58 56.04 61.90 58.17 47.38 46.48 45.92 44.75 44.59 45.10 41.87 36.03 32.63 34.12 34.24 37.83 37.99 37.09 38.56 39.03 37.76 37.57 40.58 39.51 40.68 45.44
61.57 61.51 61.63 61.69 61.62 61.51 61.55 61.56 61.76 61.86 61.89 61.89 61.72 61.64 60.33 59.59 51.76 48.77 57.23 62.15 62.12 60.11 47.73 46.18 45.40 45.14 42.21 41.69 42.70 39.24 34.15 36.25 38.88 37.58 38.69 38.22 37.35 36.76 38.38 37.33 37.95 38.70 40.94 41.40 45.28
61.12 61.05 60.97 61.06 60.90 61.00 61.05 61.02 61.23 61.38 61.61 61.48 61.59 61.40 59.75 56.24 45.62 46.18 60.22 61.82 61.73 55.07 47.63 46.05 44.98 42.96 40.24 40.42 39.30 37.60 36.29 37.38 40.47 41.02 39.58 38.10 37.61 38.39 34.74 37.82 38.68 39.76 40.01 39.23 43.07
60.51 60.27 60.31 60.15 60.14 60.47 60.46 60.58 61.09 61.27 61.48 61.31 61.51 60.73 59.25 50.96 38.80 47.81 59.72 60.37 59.68 50.09 46.67 44.63 43.84 41.14 38.23 37.40 39.17 36.41 39.53 39.19 41.40 40.46 39.47 37.84 37.78 38.14 37.62 43.19 42.77 40.71 40.39 38.17 40.77
59.73 58.20 59.40 59.15 59.28 59.73 59.68 60.20 60.76 61.05 61.17 61.33 61.16 59.47 51.25 44.71 44.07 49.17 57.74 53.52 48.38 46.84 44.40 43.05 41.76 40.37 38.04 37.71 38.11 35.12 38.14 39.52 40.56 39.59 39.16 39.00 38.84 37.73 38.09 42.96 43.10 40.05 39.85 38.74 38.57
59.16 58.73 58.32 58.12 58.41 58.81 58.55 59.39 60.46 60.81 60.91 61.27 59.61 58.05 47.15 41.26 48.29 48.14 47.67 48.51 46.52 45.02 42.71 43.19 41.08 41.57 38.95 37.65 36.63 36.71 38.50 38.88 39.53 39.46 37.82 37.52 37.04 35.70 39.76 40.05 40.71 40.10 40.25 40.41 38.56
58.80 57.85 57.43 57.45 57.57 57.58 57.74 58.86 60.18 60.22 60.73 60.61 58.44 52.72 46.23 44.96 46.54 46.47 47.56 45.78 45.52 44.27 42.42 43.17 42.91 41.43 39.61 38.22 39.24 37.26 35.29 36.83 38.49 37.90 38.17 35.36 34.54 34.68 39.86 39.28 38.84 40.23 41.48 42.12 40.96
57.74 56.76 56.56 56.17 56.35 56.88 57.54 59.02 59.67 59.81 60.69 59.44 56.92 49.41 43.48 50.12 45.98 49.55 47.93 46.29 46.04 44.48 44.05 43.30 43.20 41.42 38.46 39.66 38.22 34.95 32.92 31.66 38.43 38.52 38.37 38.77 36.04 40.72 42.14 42.08 43.22 41.48 39.57 40.67 43.28
56.51 55.77 55.53 55.20 55.33 55.89 57.26 58.80 59.11 60.11 59.97 58.91 49.53 46.09 42.23 52.65 49.18 50.05 45.34 44.53 44.83 44.21 43.12 44.85 42.05 37.78 37.67 34.14 32.62 33.00 30.40 30.73 34.08 38.31 36.29 37.69 37.24 42.52 43.13 41.29 41.33 42.64 40.58 42.22 42.31
55.36 54.78 54.43 54.22 54.80 55.86 57.80 58.77 58.81 56.01 53.93 52.21 49.84 42.38 46.73 45.70 48.48 49.35 46.03 44.02 42.47 41.59 41.55 41.06 37.53 35.20 34.47 34.20 28.89 30.09 28.89 31.07 31.57 35.80 34.66 35.15 36.17 41.12 44.28 41.58 43.02 43.08 40.68 41.29 41.72
54.26 53.75 53.43 53.67 54.69 56.75 54.87 50.97 45.97 43.91 46.25 43.51 43.70 43.57 45.63 48.69 48.21 47.01 43.75 42.41 42.26 41.52 36.42 37.27 35.02 32.11 33.41 33.23 33.60 31.96 29.56 30.27 36.65 39.31 33.43 34.19 36.65 40.01 43.14 43.53 42.85 38.24 43.39 42.41 41.99
53.17 52.87 52.87 53.06 54.35 56.82 51.44 47.65 44.93 44.84 41.40 45.32 46.25 45.91 47.41 46.41 41.50 43.79 44.50 41.02 41.32 36.29 37.08 35.94 31.81 36.18 36.14 35.15 33.39 31.87 31.10 31.82 36.55 37.42 36.17 33.26 35.67 39.87 41.72 41.37 41.21 41.15 39.86 38.01 39.16
52.60 52.28 52.46 53.62 55.35 50.67 46.80 44.98 46.85 46.79 39.35 41.03 45.00 44.91 44.87 42.41 39.18 41.37 41.30 38.94 36.71 34.64 34.28 33.24 36.06 37.18 35.53 33.41 32.60 31.62 30.67 30.44 30.77 35.72 37.57 31.19 31.16 35.08 38.36 39.91 40.92 39.20 37.67 38.97 38.08
51.53 51.67 52.05 53.61 47.15 47.31 45.57 47.66 45.51 44.85 33.18 36.08 41.64 42.81 42.21 40.86 38.12 41.19 40.04 39.53 37.84 34.60 34.08 33.67 36.11 35.01 33.62 32.85 32.97 29.33 33.18 33.41 31.70 28.82 25.27 31.89 22.34 31.41 35.62 36.15 38.16 35.81 36.11 36.59 36.41
51.29 50.85 51.09 53.10 45.27 45.90 46.46 47.61 43.28 39.69 28.09 38.60 41.56 44.27 43.85 40.60 40.74 41.38 39.53 40.18 34.81 35.92 34.21 32.50 34.10 33.36 32.32 32.72 33.61 32.74 34.32 31.43 30.11 28.01 26.47 27.64 22.40 27.12 34.39 32.26 34.46 33.11 33.95 34.20 35.82
51.07 50.44 51.05 48.22 44.06 45.85 47.43 44.28 40.93 35.02 28.45 34.60 40.72 39.26 37.91 38.62 39.63 41.08 39.87 40.57 36.45 32.60 32.09 32.70 35.05 33.59 33.05 34.80 34.51 35.38 31.38 31.36 29.44 24.38 19.86 24.29 22.93 25.34 29.81 31.90 30.56 32.48 33.17 34.71 35.75
50.79 50.70 49.71 48.54 41.08 46.78 46.18 39.34 33.49 30.14 36.79 32.82 34.78 37.23 34.34 33.84 36.19 36.16 34.94 31.30 31.15 28.21 27.26 31.64 32.05 33.97 36.05 30.29 32.42 32.85 27.24 20.46 14.97 14.38 18.48 25.03 22.58 25.41 30.89 32.38 30.28 30.99 32.96 33.66 34.72
50.47 50.80 48.49 49.75 46.40 45.75 39.46 35.06 26.89 34.24 33.35 36.14 36.23 34.84 30.88 32.75 32.38 33.58 30.50 26.93 32.34 30.56 27.70 24.98 22.57 29.52 31.21 30.32 28.54 27.37 27.57 18.80 13.16 12.11 15.57 23.43 17.74 24.44 30.26 31.83 31.81 32.02 32.46 34.16 34.48
49.71 45.72 46.38 46.42 47.30 45.48 35.18 27.28 32.27 31.65 32.70 34.60 33.31 27.48 29.51 33.56 29.59 27.84 26.30 28.20 26.98 28.41 24.99 24.84 24.06 32.23 32.69 31.40 29.64 25.29 24.61 27.88 18.10 16.60 12.42 17.63 23.43 28.42 28.44 28.64 29.92 29.81 31.30 32.16 33.25
43.13 42.71 42.79 47.41 46.69 43.14 31.19 31.33 32.19 32.65 38.12 37.08 28.99 29.20 25.93 29.03 25.63 26.47 25.66 29.51 28.33 28.39 29.33 25.93 21.23 27.85 27.88 28.53 29.73 24.02 25.99 17.72 17.13 3.77 2.31 15.06 16.66 17.41 22.72 25.13 27.52 27.83 28.77 29.88 31.49
43.53 34.28 42.00 47.41 45.61 38.97 28.04 28.49 32.45 37.42 38.78 35.65 30.98 28.08 29.75 27.22 25.69 25.44 25.03 26.10 27.00 25.57 26.48 24.00 23.27 23.71 24.74 21.66 21.70 20.97 18.60 20.32 19.58 15.29 6.22 5.23 12.50 24.25 23.99 25.78 25.76 27.78 28.58 29.37 30.24
42.21 30.49 43.30 46.60 35.84 34.23 30.55 32.92 39.54 37.52 38.47 35.09 34.22 33.48 29.23 27.83 24.98 26.20 27.08 24.77 27.26 26.31 20.27 22.42 21.84 15.03 20.28 25.97 25.05 23.14 18.98 19.73 11.74 9.43 13.30 11.97 11.12 26.84 26.42 27.40 28.10 27.36 28.43 29.64 30.26
38.79 36.74 45.25 45.60 29.64 30.25 35.97 37.20 37.69 35.30 35.92 34.15 31.98 30.99 28.03 26.41 24.43 26.48 25.32 27.55 27.91 24.90 22.51 24.71 19.64 9.26 14.70 20.08 20.15 19.09 21.55 21.89 20.07 18.51 12.32 7.90 10.61 26.69 26.79 26.50 27.00 26.51 27.69 28.56 29.43
39.14 32.81 40.36 42.85 38.79 33.31 34.36 33.35 35.01 36.11 35.19 33.98 30.51 28.54 25.86 24.49 25.26 23.96 24.54 26.11 27.61 26.77 31.44 28.82 22.29 19.01 11.40 17.60 19.35 16.66 19.17 20.63 18.41 12.87 12.14 12.90 14.73 20.63 22.80 23.24 25.22 26.34 27.37 28.06 28.87
39.62 35.71 36.92 36.14 36.00 36.81 36.20 33.58 32.23 30.87 33.60 30.83 26.30 27.40 26.92 22.15 21.66 21.71 24.05 24.90 26.58 28.67 27.43 24.91 16.64 18.35 18.89 19.73 19.67 18.59 18.51 18.93 16.50 17.14 12.38 14.88 15.04 18.98 22.19 23.46 24.95 26.53 27.33 27.43 27.74
36.04 34.89 37.75 36.32 36.80 36.83 36.09 32.49 31.26 31.58 31.79 28.00 27.00 26.27 25.75 23.82 24.74 20.81 22.85 22.90 22.60 24.72 23.30 24.60 16.47 18.57 15.13 19.63 19.22 16.71 18.85 18.44 18.56 18.88 16.10 16.36 15.57 23.85 25.21 25.98 24.98 25.90 26.34 25.71 26.50
41.07 39.47 38.40 34.95 33.27 33.76 33.30 33.48 33.49 34.51 31.88 29.91 28.44 25.02 23.53 24.99 25.71 26.01 27.04 26.74 25.60 23.78 22.24 21.32 18.42 9.44 3.77 16.87 15.70 6.15 14.20 17.28 17.45 17.96 16.88 12.06 18.54 23.46 22.44 23.58 24.00 24.71 25.54 25.49 26.96

GFSSW_sfc_wetblb_003.txt.gz
Wetbulb
61.49 61.48 61.47 61.78 61.59 61.54 61.70 61.64 61.91 61.86 61.89 62.12 62.18 61.93 60.88 60.33 59.25 52.45 46.98 52.48 57.35 63.05 58.59 48.04 48.32 46.58 46.56 46.95 47.17 44.97 38.50 35.56 37.64 37.42 40.60 41.77 41.02 42.85 42.99 41.89 41.98 42.96 42.77 45.24 48.37
61.13 60.93 60.95 60.78 60.91 60.83 61.02 60.91 61.36 61.49 61.54 61.80 61.79 61.78 60.44 59.75 50.09 47.62 57.16 62.41 62.75 60.97 47.87 46.71 46.20 45.53 43.51 43.96 44.61 41.27 36.68 37.87 40.48 40.35 41.21 41.24 40.36 41.28 42.11 41.18 40.82 41.48 43.34 43.88 47.71
60.58 59.84 59.98 60.06 60.19 60.16 60.18 60.08 60.57 60.88 61.33 61.41 61.61 61.72 60.12 56.54 45.92 46.04 61.05 62.35 61.83 56.74 47.86 46.92 45.83 44.91 42.95 42.52 42.02 40.95 38.45 39.62 41.17 41.94 41.64 40.74 39.94 41.40 39.53 40.47 42.08 43.02 43.74 43.44 45.29
59.68 58.90 59.58 59.36 59.20 59.29 59.39 59.43 60.29 60.76 61.24 61.19 61.52 60.86 59.23 50.47 38.66 47.40 59.54 59.15 59.00 49.22 46.77 45.39 45.34 43.45 40.78 40.02 40.74 38.96 40.62 40.26 42.13 41.71 40.77 40.36 41.06 40.06 40.14 43.84 44.16 43.40 42.41 41.20 41.47
58.75 58.81 58.24 57.97 58.04 58.35 58.54 58.94 60.16 60.64 60.79 61.13 61.44 60.05 51.15 44.30 43.67 48.30 56.67 53.49 47.81 46.68 44.46 43.72 42.75 42.19 40.11 39.76 39.98 37.91 39.24 40.03 40.40 40.03 40.13 39.51 39.62 38.98 39.24 43.40 43.12 42.08 42.06 43.48 43.61
58.57 57.60 56.77 56.72 56.98 57.40 57.73 58.40 60.02 60.32 60.60 61.29 61.14 58.70 45.62 41.80 47.91 47.65 48.04 48.49 46.22 45.14 43.69 44.06 42.11 42.71 41.00 39.16 38.05 38.46 38.43 38.83 39.52 39.58 38.74 38.70 38.74 38.71 41.52 41.40 41.68 43.22 45.56 44.46 44.04
57.62 56.65 55.97 56.08 56.23 56.43 56.77 58.31 59.66 59.82 60.48 61.38 59.64 52.41 46.37 44.88 46.91 46.51 48.67 45.33 45.21 44.38 42.94 43.59 43.49 42.96 41.51 39.64 39.88 37.74 36.01 37.85 39.51 38.73 39.29 37.61 36.16 35.85 41.40 41.33 44.15 43.69 43.03 42.66 43.10
56.54 55.41 55.32 55.26 55.29 55.78 57.07 58.41 59.09 59.55 60.44 59.99 57.24 49.15 43.60 49.95 46.34 51.19 48.75 46.55 45.80 44.76 44.22 43.39 43.57 42.24 40.09 40.48 38.45 36.03 35.54 33.97 39.85 39.09 40.58 40.79 35.68 40.58 43.13 43.23 42.36 41.82 41.92 41.40 42.31
55.21 54.54 54.66 54.56 54.70 55.82 57.19 58.28 58.63 59.86 59.95 58.89 48.98 45.40 41.77 52.64 48.91 49.44 46.12 44.42 44.08 44.12 42.76 44.75 42.53 38.85 39.01 35.62 34.37 34.43 31.66 32.05 34.63 38.08 38.02 38.72 36.40 41.17 43.94 40.94 40.45 41.47 41.15 40.92 40.72
54.37 53.88 53.93 54.04 54.95 56.22 57.63 58.47 58.48 55.05 52.61 51.12 49.26 42.76 46.60 44.89 48.01 48.48 45.96 43.32 42.55 41.69 42.09 41.52 38.02 36.32 35.06 35.60 29.73 31.69 30.07 31.41 31.55 36.74 35.65 35.61 37.23 41.14 41.76 39.88 40.42 39.22 38.96 39.47 38.83
53.81 53.59 53.44 53.86 55.18 57.02 54.25 48.82 44.49 43.65 44.93 43.09 42.91 42.32 45.38 48.67 47.52 45.42 43.26 42.36 41.86 41.05 36.83 37.60 34.28 32.77 33.77 33.87 34.35 33.27 30.72 30.78 35.10 37.92 35.72 35.40 36.36 38.76 38.50 39.10 38.16 37.12 37.70 37.66 37.23
53.24 52.93 53.03 53.54 54.98 55.97 50.55 47.15 43.79 44.24 41.40 44.41 45.70 45.77 47.28 46.13 41.09 43.35 44.05 40.68 39.90 36.29 37.50 36.31 31.01 35.99 36.70 35.34 34.17 33.38 31.18 32.32 35.30 36.69 35.36 34.17 34.72 37.19 36.76 37.24 35.83 35.61 36.91 35.53 36.66
52.92 52.77 52.67 53.47 55.17 50.41 46.59 44.03 46.23 46.16 38.36 40.35 43.76 43.82 44.11 42.29 38.59 41.16 42.05 39.03 37.75 35.79 33.90 33.20 35.54 37.00 35.51 34.52 33.58 31.64 30.36 30.69 30.85 34.29 34.94 32.00 30.56 33.47 36.80 36.92 35.42 35.25 35.54 35.24 35.38
52.24 52.16 52.01 53.72 46.56 46.87 44.72 46.89 45.49 44.23 34.31 36.39 40.12 41.73 41.57 40.56 37.39 41.12 39.63 39.27 37.54 34.19 33.35 33.11 35.55 34.53 33.76 32.44 32.19 30.14 33.05 32.72 30.93 27.76 24.51 31.04 21.69 30.81 33.77 33.03 32.56 31.86 31.83 33.38 34.21
51.93 51.22 51.60 52.11 42.86 45.20 45.81 46.63 43.64 39.22 28.42 38.40 40.09 44.03 42.20 38.70 39.10 39.73 40.39 40.01 34.59 33.46 32.00 29.71 32.27 31.92 31.93 32.00 33.29 32.31 33.37 31.45 29.32 27.46 23.96 26.00 22.44 26.45 31.88 28.04 29.55 30.32 31.69 32.89 34.84
51.52 50.87 51.54 47.18 44.29 45.08 46.65 43.55 39.81 36.02 28.72 34.80 39.71 38.37 37.45 36.76 38.23 40.05 38.77 39.65 36.15 32.82 31.83 32.06 34.01 32.71 32.69 33.83 33.05 34.07 29.42 29.34 27.91 24.36 19.59 23.61 20.74 23.93 26.34 27.47 28.18 29.67 30.74 32.21 34.13
50.97 50.99 49.26 48.31 41.29 45.90 45.75 38.00 34.91 29.85 37.36 33.17 33.37 36.34 33.18 32.77 34.57 35.32 32.97 31.42 29.42 25.74 25.78 30.65 30.68 33.36 33.67 29.25 31.34 28.06 25.59 18.37 15.09 15.59 16.91 23.25 20.03 22.74 27.71 30.11 27.88 28.10 29.98 31.53 32.98
50.59 50.66 48.81 49.08 46.09 45.21 38.05 36.19 27.59 34.34 35.14 35.17 34.93 33.92 32.17 31.50 31.28 31.76 28.03 25.78 29.22 28.66 26.46 23.63 21.84 29.44 30.51 30.15 27.38 24.66 26.17 16.67 7.91 9.92 15.37 21.41 15.79 24.36 27.46 29.34 30.23 30.32 31.18 31.65 32.42
49.36 45.12 46.09 45.79 46.98 43.91 35.60 26.93 31.97 33.10 33.89 33.01 33.70 26.62 27.30 32.20 28.26 26.13 25.04 26.83 25.43 26.60 24.07 22.72 22.57 29.46 28.69 28.54 27.68 23.41 19.67 26.18 18.56 5.11 8.58 16.50 21.90 27.66 27.02 27.47 28.60 28.70 29.63 30.10 31.36
43.42 42.02 40.96 46.87 46.42 40.78 31.65 31.80 32.32 34.60 37.28 35.97 29.56 29.84 24.43 29.41 27.14 24.12 24.24 28.12 26.20 26.63 26.83 24.92 20.02 25.80 27.95 27.39 25.37 23.57 24.74 17.15 16.31 -0.16 -0.28 13.27 17.98 18.97 22.40 23.71 26.30 26.68 27.65 29.19 30.06
42.62 32.67 40.31 46.94 44.90 38.30 27.82 28.45 32.38 34.66 38.99 35.73 31.38 29.03 28.32 28.55 26.22 24.44 23.92 25.28 26.89 24.81 25.54 22.72 21.71 21.71 23.98 21.55 19.98 20.55 17.87 20.02 18.74 14.49 4.43 2.79 15.09 22.40 22.81 24.43 24.77 26.30 27.88 28.11 29.09
42.97 32.25 42.16 45.74 36.14 33.56 30.05 31.53 38.20 37.55 36.67 36.44 33.95 32.71 30.06 28.70 25.30 24.75 25.91 25.71 26.68 26.19 20.44 21.22 21.39 13.77 18.45 21.67 23.68 21.71 19.12 19.39 9.93 8.56 11.93 11.46 10.05 25.62 24.87 26.37 26.61 26.03 27.23 28.66 29.55
39.59 36.89 47.77 46.85 33.24 30.39 33.75 35.70 37.65 35.73 35.91 35.02 32.80 33.17 29.65 27.46 25.57 26.76 25.70 27.00 27.15 25.28 22.68 23.94 18.95 8.28 13.91 18.87 19.80 18.52 20.69 21.51 19.38 17.73 10.52 7.27 9.61 25.80 25.89 25.36 25.92 25.48 26.85 27.94 28.66
39.33 33.03 41.22 44.08 40.43 34.29 31.41 32.82 34.73 37.10 35.95 34.99 31.21 29.94 27.66 26.16 25.65 25.59 24.35 25.92 27.44 25.37 30.76 27.40 20.50 18.01 13.89 18.78 18.78 17.26 19.56 20.74 17.74 11.85 11.12 12.44 14.07 19.82 22.20 22.46 24.29 25.32 26.60 26.91 27.30
39.86 35.63 39.50 35.61 36.64 35.89 35.90 35.04 33.65 32.43 34.70 32.35 28.14 28.77 28.24 24.40 22.91 23.80 24.79 24.27 25.78 28.28 25.65 24.75 16.78 19.29 19.93 20.77 19.52 18.16 17.85 18.54 15.91 16.62 12.19 14.43 14.66 18.62 21.44 22.47 23.86 25.48 25.72 25.02 23.96
37.24 35.97 38.42 36.78 36.20 37.41 36.66 33.57 33.03 32.95 32.62 30.13 27.64 28.68 28.51 26.22 27.42 22.86 23.55 23.58 23.76 24.17 23.31 23.86 17.15 18.47 14.77 19.19 18.69 16.47 18.86 18.73 18.33 18.29 16.16 15.96 14.86 23.32 24.25 25.02 23.68 23.58 22.22 21.07 21.72
42.24 40.50 39.08 37.07 35.30 35.71 35.44 34.61 34.21 34.65 34.58 34.42 30.51 28.41 26.00 28.14 28.06 28.22 28.14 27.49 26.36 23.75 22.16 21.15 18.69 11.85 6.47 15.28 14.34 7.71 14.70 17.12 17.59 17.25 15.58 11.37 18.27 22.34 21.31 22.38 21.59 19.78 20.46 21.13 17.98

GFSSW_sfc_wetblb_006.txt.gz
Wetbulb
61.64 61.00 61.04 61.45 61.00 60.78 60.78 60.99 61.03 61.59 61.75 61.95 62.19 62.13 61.79 60.60 59.75 55.28 50.72 55.06 58.81 63.49 60.41 53.13 53.32 51.98 52.71 52.73 52.56 51.35 48.14 45.09 44.65 44.27 46.62 48.13 47.09 48.82 48.44 47.79 48.07 48.60 48.58 50.84 51.24
61.00 59.90 60.42 59.89 59.98 59.84 60.04 60.30 60.59 61.06 61.38 61.82 61.84 61.82 61.00 59.92 54.09 52.21 58.20 62.79 63.51 62.61 52.74 51.90 51.60 51.70 51.54 49.68 51.40 49.87 47.32 45.48 47.44 47.71 47.38 48.79 47.20 47.30 47.37 49.13 48.74 49.00 51.78 51.35 51.67
59.76 59.58 59.26 58.89 59.03 59.11 59.41 59.67 59.97 60.75 61.11 61.32 61.65 61.60 60.08 58.93 52.36 50.88 60.96 62.34 62.23 58.92 52.75 51.95 51.33 51.61 49.71 49.39 48.25 47.78 46.85 46.21 46.77 47.56 47.50 47.38 47.47 46.88 46.74 46.96 48.33 46.81 48.50 50.26 51.60
59.34 58.59 58.01 58.09 58.19 58.46 58.76 59.07 59.76 60.63 60.99 61.10 61.55 61.06 59.06 55.33 45.89 52.46 59.43 59.76 59.14 53.03 51.78 51.07 52.01 50.19 48.55 47.50 47.26 45.60 47.25 46.32 46.86 46.76 46.46 46.16 46.76 46.49 45.79 48.17 48.88 48.91 50.01 51.84 49.42
58.62 57.67 57.20 57.01 57.16 57.59 58.05 58.69 59.92 60.18 60.36 61.09 61.71 60.39 56.71 51.99 49.67 53.04 57.04 55.93 52.43 51.42 49.75 49.32 49.32 48.80 47.02 47.45 46.75 45.22 46.41 45.35 45.71 45.47 45.30 45.46 45.65 44.39 45.82 48.31 50.01 51.11 50.81 49.42 46.34
57.65 56.72 56.22 56.20 56.22 56.78 57.64 58.82 59.87 59.79 60.23 61.26 61.66 59.11 53.74 49.09 52.94 51.92 53.43 52.44 51.25 50.87 50.15 50.53 48.70 48.90 47.90 46.26 45.26 45.44 45.02 45.67 44.83 44.54 43.59 44.16 44.94 43.97 46.65 49.34 48.54 48.97 48.20 45.91 44.72
56.85 55.80 55.48 55.45 55.55 56.38 57.54 58.73 59.69 59.45 60.33 61.23 59.78 55.26 53.56 50.86 52.75 54.30 52.73 50.30 49.94 49.76 49.40 49.12 49.23 48.74 48.03 46.46 45.70 44.09 42.83 46.41 45.08 45.11 42.91 44.18 43.71 42.10 47.73 48.32 46.06 47.68 45.75 44.33 44.41
55.85 54.96 54.86 54.80 55.02 56.25 57.62 58.70 58.95 59.36 59.98 59.75 58.06 55.00 50.60 54.81 53.76 55.50 54.22 51.46 50.94 50.28 49.18 48.52 49.27 47.93 46.38 46.38 45.12 43.13 43.62 40.57 45.41 44.68 42.76 45.44 39.54 45.82 47.81 45.34 45.27 45.33 44.01 43.12 43.17
55.04 54.30 54.54 54.35 54.79 56.09 57.59 58.19 58.28 59.34 59.97 59.16 55.68 53.96 49.42 55.57 53.52 53.74 52.48 48.73 48.84 49.17 48.16 47.86 48.62 45.70 46.44 45.01 43.96 43.89 39.27 39.44 40.66 45.15 43.19 43.24 40.76 45.55 46.27 43.93 43.27 42.73 41.67 41.44 41.94
54.61 54.17 54.08 53.97 55.03 56.50 57.34 57.85 58.50 57.01 55.22 53.01 52.82 51.24 51.96 49.99 52.44 51.97 52.17 48.29 48.37 47.87 47.67 48.63 47.47 45.89 46.39 43.60 37.35 38.78 38.77 39.35 38.78 42.58 43.10 41.32 41.62 44.19 44.22 42.70 40.98 40.75 40.23 40.14 40.61
54.22 54.05 53.70 53.89 55.35 57.51 56.18 53.78 49.86 51.57 50.22 48.96 48.12 47.29 48.70 52.87 51.73 49.58 48.53 48.38 48.36 48.43 44.59 45.72 41.26 42.10 41.70 41.92 41.95 40.64 39.22 38.64 40.71 43.04 40.49 40.54 40.40 41.49 42.00 40.19 39.06 38.79 38.10 37.93 39.38
53.94 53.66 53.33 53.42 55.03 56.17 54.96 50.53 48.17 47.69 45.39 48.06 48.64 48.73 50.27 50.47 46.40 48.42 50.01 47.29 46.39 43.67 45.93 42.87 38.08 42.38 42.15 41.49 40.48 40.17 37.89 37.50 40.38 41.78 38.71 38.72 37.67 39.65 40.11 36.81 37.19 37.45 36.66 36.94 38.21
53.50 53.25 52.90 53.91 55.26 54.27 50.55 48.66 50.04 50.79 44.44 45.36 47.83 48.26 49.14 47.99 44.65 46.07 47.61 45.60 44.14 43.09 42.39 38.67 39.01 41.63 40.52 40.47 38.26 38.27 36.42 36.74 35.37 38.08 39.60 37.71 35.77 37.09 37.73 37.48 36.53 36.96 37.05 37.13 36.85
52.74 52.58 52.21 53.54 50.44 51.96 48.71 50.35 50.72 50.55 43.96 44.16 44.97 48.02 46.53 46.19 44.01 46.12 44.96 45.52 44.36 40.91 40.19 38.58 41.32 39.95 39.25 38.08 37.60 34.65 37.61 36.17 34.51 32.85 29.64 36.41 27.00 35.06 36.47 34.33 34.05 34.92 35.47 35.80 36.09
52.20 51.53 51.87 51.42 48.45 49.19 49.13 50.72 49.38 46.84 38.21 44.57 45.48 49.06 46.34 43.88 43.84 44.77 45.70 44.71 41.39 39.71 38.01 37.03 37.98 37.66 37.38 36.61 38.19 36.72 36.23 34.44 33.87 32.25 31.27 32.12 28.98 33.63 37.45 31.55 31.18 33.47 34.81 35.62 35.80
51.67 50.98 51.75 49.38 50.38 50.04 50.12 48.69 46.51 43.60 36.15 41.98 45.37 43.43 43.33 41.86 42.42 44.72 43.32 45.23 42.73 39.35 38.82 37.90 39.76 39.26 38.67 38.05 36.83 35.44 34.34 34.74 33.88 31.64 25.43 28.48 26.70 29.82 30.66 28.12 30.41 32.99 34.03 34.25 34.60
51.38 51.02 50.46 50.08 46.10 50.56 50.45 46.24 43.87 37.78 43.84 40.65 40.31 41.70 39.74 39.99 39.75 39.92 38.04 38.23 36.70 32.85 33.54 36.39 36.37 37.78 37.55 35.24 36.63 34.37 32.20 25.97 24.17 25.88 25.26 29.30 25.35 29.04 29.28 30.42 31.03 31.47 32.63 33.39 34.50
51.07 50.54 50.64 50.91 51.20 50.55 47.70 45.84 37.33 41.61 41.73 40.80 40.49 39.47 38.56 38.07 38.09 36.89 34.61 35.09 35.05 36.01 33.81 31.41 29.03 35.57 36.19 33.31 31.00 31.25 30.97 24.18 14.90 18.89 22.23 26.52 20.68 27.71 30.96 32.70 33.00 33.11 32.79 33.26 33.59
50.09 49.80 50.27 50.74 50.66 49.70 43.58 37.38 41.81 40.89 41.93 38.90 39.55 37.61 35.08 36.88 36.17 35.14 34.19 33.78 35.13 36.18 32.51 29.61 28.38 32.82 31.52 33.53 33.26 30.63 27.06 29.35 22.26 18.74 16.81 24.24 27.19 30.91 31.14 30.77 31.42 31.08 31.20 31.39 31.98
47.24 46.70 45.26 50.67 51.10 46.71 39.90 38.27 39.18 42.23 41.03 40.56 38.84 39.99 37.06 36.45 35.55 33.46 32.77 34.69 32.48 33.09 33.52 31.83 26.77 30.49 30.34 32.29 30.67 29.17 30.59 22.17 23.66 12.60 11.92 22.30 23.47 24.92 26.35 27.14 28.98 28.87 29.44 30.25 32.21
47.06 38.77 45.96 50.85 49.58 45.14 34.69 35.87 37.36 39.41 42.61 39.86 38.99 38.50 37.18 36.07 36.14 33.64 32.78 32.43 33.69 29.96 33.78 31.25 28.54 27.03 27.90 27.19 27.45 25.69 24.35 24.33 24.02 20.93 13.47 12.50 22.02 29.15 26.90 27.69 27.31 28.39 29.41 30.44 31.75
43.18 35.92 48.07 49.81 41.38 41.41 36.63 36.42 38.59 38.54 40.82 39.84 39.35 38.46 37.82 37.39 32.85 30.61 31.99 33.82 34.11 32.17 28.72 29.24 27.48 22.77 25.62 27.29 27.92 28.07 26.04 24.55 18.81 15.63 18.74 16.56 16.46 30.15 29.12 29.40 29.00 28.33 29.20 30.89 31.92
40.19 39.17 49.36 48.62 35.91 35.48 37.56 37.65 39.28 38.82 39.20 38.79 37.79 38.66 37.78 33.34 30.45 32.89 32.32 30.71 31.39 30.40 27.88 28.56 24.40 20.31 18.06 23.62 26.07 24.01 24.11 24.75 23.83 21.29 14.10 11.74 18.20 29.72 30.52 28.72 28.69 27.86 29.24 30.31 30.27
40.04 34.37 42.87 44.65 43.55 38.73 39.00 37.07 36.72 40.95 39.99 39.83 37.25 35.87 30.95 29.17 30.28 29.17 28.98 28.22 30.14 29.81 30.84 30.30 25.33 24.34 22.51 24.87 24.36 20.60 22.69 23.87 22.02 15.46 15.96 16.71 19.48 24.84 26.22 25.97 26.81 28.16 28.56 28.67 27.99
41.75 37.35 39.56 36.44 37.44 39.61 40.26 40.76 37.99 36.89 38.68 38.20 32.56 33.55 31.57 28.04 27.98 27.70 29.24 26.87 28.64 29.93 30.11 27.84 20.93 23.19 23.99 24.49 23.87 23.04 22.51 22.90 19.70 20.40 14.96 19.22 19.10 22.93 25.45 25.35 26.59 27.84 27.68 25.68 26.44
44.82 38.05 39.43 38.71 43.02 37.87 37.67 36.94 36.16 38.46 35.45 33.34 31.94 31.33 31.18 31.68 30.17 26.83 28.25 27.31 26.77 27.06 26.19 27.06 20.39 20.23 17.24 22.00 21.54 19.14 21.54 21.75 21.44 21.12 20.10 20.29 19.15 26.81 27.13 27.98 26.17 26.00 23.96 24.29 23.71
44.35 42.15 41.07 44.08 39.59 38.10 39.96 38.52 39.31 39.75 37.58 38.51 34.10 31.03 28.33 32.27 33.71 32.06 33.22 33.14 30.14 25.88 24.06 22.97 20.34 16.85 17.06 17.25 17.10 13.74 18.52 21.07 21.57 22.90 21.58 15.84 21.89 25.66 24.54 24.84 24.13 22.96 24.77 21.77 20.49

GFSSW_sfc_wetblb_009.txt.gz
Wetbulb
61.22 60.54 60.18 60.14 59.80 59.53 59.73 60.06 60.37 61.05 61.55 61.77 62.10 62.03 61.74 60.80 59.90 58.96 52.56 56.32 59.22 63.54 61.56 55.70 55.04 54.82 54.98 54.68 55.00 54.45 49.02 46.40 45.89 45.99 47.63 50.42 48.97 51.96 51.86 49.33 50.68 50.75 50.63 52.56 54.27
60.69 59.83 59.30 58.86 59.13 59.38 59.48 59.74 60.11 60.74 61.21 61.58 61.71 61.77 61.00 60.40 56.99 54.19 58.46 63.01 63.49 62.82 54.53 53.38 52.97 53.95 53.50 52.30 53.56 51.43 48.66 47.05 49.21 49.26 48.69 49.90 49.30 49.47 48.63 49.20 49.71 50.05 52.64 53.75 52.97
59.92 58.97 58.68 58.49 58.67 58.75 59.13 59.51 59.91 60.59 60.95 61.13 61.48 61.66 60.62 60.02 54.53 52.74 60.86 61.89 62.21 59.64 54.16 53.72 53.73 53.67 51.85 52.19 51.08 50.74 47.24 48.48 48.56 49.62 50.04 48.49 48.46 49.08 47.63 47.21 48.30 47.78 49.97 51.57 49.25
59.21 58.18 57.72 57.72 57.83 58.07 58.76 59.12 60.13 60.52 60.63 60.85 61.46 61.70 59.75 58.54 48.06 54.46 59.37 60.91 59.95 55.41 54.07 53.76 53.59 51.76 50.23 49.30 50.62 46.81 49.05 48.85 49.02 49.00 47.95 47.21 48.25 47.44 47.72 48.59 49.98 50.16 51.13 48.21 47.41
58.34 57.37 56.85 56.77 56.78 57.34 58.47 59.12 59.93 60.23 60.18 60.96 61.61 61.23 59.19 53.74 52.03 55.06 59.87 58.61 55.51 54.34 52.72 52.10 51.07 50.43 48.23 48.94 49.49 47.60 48.30 47.81 48.11 47.82 47.42 47.56 46.73 46.28 47.83 50.29 49.32 50.72 48.15 46.83 46.19
57.52 56.45 56.05 56.07 55.97 56.82 58.19 59.13 59.88 59.76 60.19 61.10 61.75 58.81 56.57 50.72 54.88 54.96 55.41 54.39 53.49 53.72 53.04 52.87 50.82 51.27 49.57 48.68 47.51 48.74 47.75 47.69 47.21 46.91 46.64 45.68 45.98 45.80 48.29 49.64 47.41 47.68 45.85 45.86 45.38
56.85 55.79 55.54 55.65 55.46 56.48 57.86 58.70 59.59 59.39 60.06 60.92 59.74 57.70 55.30 52.11 54.65 58.99 55.11 52.15 52.25 52.35 51.64 51.67 51.06 50.32 50.69 48.70 49.09 47.13 45.00 47.50 46.56 46.58 45.13 46.85 44.22 44.68 48.76 48.04 46.31 46.34 45.24 44.84 44.61
56.18 55.21 55.19 55.18 55.09 56.44 57.75 58.55 58.50 59.21 59.62 60.07 58.97 57.43 52.01 55.99 57.28 57.04 56.13 54.00 53.08 52.34 51.62 50.78 51.18 50.20 48.86 49.66 47.87 45.20 45.48 43.04 46.34 46.00 45.24 45.70 40.20 46.43 48.73 46.11 45.33 44.98 43.88 43.78 43.62
55.57 54.81 55.00 54.88 55.00 56.24 57.40 57.70 58.25 58.81 59.69 59.07 58.24 55.79 50.30 55.45 55.09 56.06 55.52 50.58 51.65 51.90 51.32 49.63 50.41 48.77 48.88 46.53 44.70 45.71 41.59 42.22 42.75 46.17 44.69 43.95 40.73 46.64 48.55 45.31 44.04 42.85 41.97 41.86 42.48
55.13 54.70 54.73 54.57 55.00 56.57 56.86 58.14 58.86 56.67 56.38 55.27 55.24 53.20 52.60 51.68 54.34 53.84 53.87 50.90 50.73 51.10 50.94 50.89 49.73 46.48 47.91 43.55 37.68 38.78 39.03 41.27 40.99 43.88 43.94 42.46 42.09 44.28 45.67 43.65 42.54 41.09 40.41 39.94 40.42
54.84 54.66 54.48 54.18 55.33 57.13 57.30 56.28 54.79 54.77 53.27 50.76 50.51 50.05 51.03 54.31 53.86 51.66 51.30 51.05 50.92 49.54 47.27 49.07 44.10 42.74 44.65 42.93 42.36 41.78 40.76 39.89 42.28 43.72 41.03 39.78 40.08 42.06 42.64 41.59 40.37 39.16 38.47 38.27 38.58
54.63 54.18 53.86 53.75 55.01 56.61 56.52 51.43 49.79 50.42 46.99 50.48 50.48 50.81 52.67 52.14 48.27 50.27 52.22 47.90 47.33 45.45 48.52 46.64 43.94 44.50 43.88 43.52 42.32 41.46 39.29 38.54 41.08 43.26 40.55 38.88 38.39 41.56 40.86 38.70 39.25 37.57 37.23 37.16 37.56
54.32 53.94 53.18 54.11 55.22 56.06 52.10 50.38 53.18 53.31 47.36 48.63 49.95 50.58 50.90 50.12 47.44 47.77 49.75 47.92 45.90 45.36 45.65 41.90 44.37 43.09 42.30 42.22 40.10 39.99 37.72 37.65 36.22 39.61 40.57 38.67 36.67 36.95 37.60 37.56 37.45 37.49 37.81 37.75 36.69
53.84 53.34 52.70 53.71 52.70 53.64 51.42 52.09 53.86 53.41 45.36 46.40 46.99 49.82 48.45 48.30 46.06 48.88 48.16 46.45 46.98 43.14 42.85 41.12 43.16 41.70 41.40 39.56 39.31 35.64 38.16 36.99 36.06 34.65 31.18 37.85 28.47 37.17 36.00 35.75 35.28 35.86 36.44 36.27 36.08
53.51 52.73 51.68 52.46 51.11 50.63 50.99 53.38 52.56 50.11 38.95 45.34 47.11 50.16 48.58 45.96 46.08 46.53 47.72 46.19 43.15 43.68 41.02 40.54 38.66 38.70 37.69 38.70 39.30 37.82 37.01 36.00 36.05 34.62 33.91 33.97 30.75 35.52 38.78 35.52 32.77 34.38 34.95 35.16 35.73
53.15 51.95 51.75 52.26 52.67 52.61 53.03 52.16 50.20 44.02 37.62 44.02 47.43 46.15 45.34 44.96 45.37 46.51 46.09 46.58 44.88 40.81 41.30 40.00 42.11 40.90 40.93 40.33 38.80 37.36 36.88 36.33 36.49 34.59 26.67 32.64 30.19 32.79 34.19 31.71 31.61 33.58 34.05 34.41 34.98
52.70 51.14 51.33 51.68 49.06 53.57 53.33 50.82 44.11 39.02 46.15 43.66 43.44 44.52 43.63 44.34 44.20 43.23 42.46 41.86 40.21 37.33 38.63 39.32 39.46 40.26 39.11 36.92 39.18 37.03 34.08 27.77 28.34 28.94 27.80 31.71 27.50 31.22 32.11 31.92 31.86 32.08 32.87 33.95 34.81
51.87 50.38 52.13 52.32 54.00 53.67 53.31 46.01 38.06 44.53 45.86 43.54 43.27 42.22 41.44 42.98 43.60 40.47 39.91 39.66 40.52 38.75 35.80 34.04 33.05 37.56 38.78 36.70 34.02 33.10 32.11 26.73 19.25 23.08 26.00 29.62 22.83 29.72 33.33 33.54 33.63 33.86 33.45 33.96 33.60
50.19 53.63 52.05 52.92 53.35 53.31 45.34 40.05 41.11 45.16 46.52 42.85 41.73 41.15 43.41 39.82 39.06 38.90 39.15 40.20 40.42 39.83 34.96 33.86 32.41 35.35 33.39 35.43 35.10 32.96 28.88 31.91 25.35 25.08 19.01 26.26 30.39 31.36 32.73 32.14 32.63 32.15 32.49 32.05 32.62
52.75 49.28 52.05 53.05 53.72 50.33 41.19 39.93 44.38 46.32 43.52 43.27 41.59 44.84 41.00 43.13 38.30 38.82 39.74 40.79 36.92 38.53 38.56 36.27 30.20 34.91 31.14 33.43 32.23 30.98 33.08 24.27 25.18 15.65 15.51 25.41 26.22 27.60 28.38 29.12 30.30 30.12 30.62 31.26 32.36
47.85 44.48 49.78 53.18 52.86 44.81 37.63 40.99 44.26 47.64 45.13 43.22 43.15 42.74 42.92 41.09 41.38 40.37 40.38 39.76 39.18 35.10 35.96 35.21 31.72 29.44 30.43 28.85 30.22 27.73 26.54 26.40 26.54 24.49 17.18 16.52 24.01 30.17 28.44 28.98 28.40 29.77 30.56 31.06 31.77
45.88 42.32 50.93 52.99 41.30 42.62 39.71 43.45 43.53 42.76 43.26 43.60 41.80 43.03 42.60 43.16 41.53 39.17 39.40 40.87 39.40 35.90 30.77 33.47 31.20 26.70 29.36 30.34 30.23 28.73 28.22 28.05 21.47 20.03 21.45 20.06 19.20 32.58 31.55 30.86 30.44 29.91 30.35 31.48 32.05
41.26 43.15 49.65 50.06 38.38 40.06 42.18 40.45 42.05 41.91 41.47 41.31 40.25 41.51 44.09 40.13 36.89 39.53 40.32 33.98 37.50 34.28 32.12 30.70 27.49 22.87 24.32 25.88 27.52 25.36 27.20 28.27 27.40 23.94 18.67 15.80 19.97 31.21 31.19 32.12 30.73 29.47 30.00 30.74 30.41
42.86 39.63 43.23 44.91 44.45 42.67 42.12 41.19 40.19 42.80 42.03 43.26 42.95 44.38 40.35 36.17 40.12 38.31 34.73 30.70 33.83 34.10 31.81 33.58 28.66 27.01 25.89 29.18 26.56 22.88 25.26 26.52 24.53 18.82 19.46 19.72 22.22 27.94 29.53 29.09 29.20 28.77 29.77 29.67 28.79
43.30 39.84 43.30 38.63 39.04 41.11 43.34 42.83 41.36 41.51 42.14 42.77 39.94 40.40 38.35 34.74 37.17 34.01 35.33 28.39 30.03 31.23 30.77 29.92 24.40 27.08 27.51 28.16 27.13 25.44 24.59 24.68 21.77 23.42 19.37 22.33 23.25 26.87 28.41 28.36 27.75 29.05 29.34 27.85 27.68
45.99 42.48 40.24 41.04 45.97 41.50 41.33 40.30 40.05 41.71 43.89 40.16 37.68 41.18 38.22 36.06 37.63 37.88 33.18 29.43 27.26 29.15 29.11 29.54 23.94 24.37 19.43 24.45 24.55 21.48 24.05 24.48 24.33 24.34 23.70 22.95 21.43 29.42 30.55 29.26 27.84 27.87 27.44 25.98 26.78
50.64 44.43 43.37 44.32 41.94 41.10 40.16 40.81 41.68 43.54 44.43 45.31 43.72 40.61 37.65 37.28 35.93 34.33 35.12 33.79 33.31 28.17 26.73 25.79 24.05 19.71 17.36 20.97 19.23 16.56 21.37 22.71 24.13 25.63 24.14 18.85 24.65 29.48 27.16 26.26 26.66 26.31 25.94 25.98 24.87